FW1757 Weather Reports


time (UTC)temp
C
wind
direction
speed
KPH
gust
KPH
rain 1hr
cm
rain 24hr
cm
rain mn
cm
humidity
%
barometer
mb
20260901024033 23 155 0.0 0.0 0.00 0.00 0.00 31 1005.4
20260901023529 23 155 0.0 0.0 0.00 0.00 0.00 31 1005.3
20260901023029 24 155 0.0 0.0 0.00 0.00 0.00 30 1005.4
20260901022530 25 155 0.0 0.0 0.00 0.00 0.00 29 1005.4
20260901022030 25 155 0.0 0.0 0.00 0.00 0.00 28 1005.4
20260901021534 26 155 0.0 0.0 0.00 0.00 0.00 27 1005.4
20260901021029 27 155 0.0 0.0 0.00 0.00 0.00 27 1005.4
20260901020528 27 155 0.0 0.0 0.00 0.00 0.00 26 1005.3
20260901020029 28 155 0.0 0.0 0.00 0.00 0.00 25 1005.4
20260901015527 28 155 0.0 0.0 0.00 0.00 0.00 24 1005.5
20260901015026 29 155 0.0 0.0 0.00 0.00 0.00 24 1005.6
20260901014526 29 155 0.0 0.0 0.00 0.00 0.00 23 1005.5
20260901014026 30 155 0.0 0.0 0.00 0.00 0.00 21 1005.6
20260901013526 30 155 0.0 0.0 0.00 0.00 0.00 21 1005.5
20260901013026 30 155 0.0 0.0 0.00 0.00 0.00 21 1005.6
20260901012525 30 155 0.0 0.0 0.00 0.00 0.00 21 1005.6
20260901012025 30 155 0.0 0.0 0.00 0.00 0.00 21 1005.6
20260901011535 30 151 0.0 0.0 0.00 0.00 0.00 21 1005.7
20260901011025 31 151 0.0 0.0 0.00 0.00 0.00 20 1005.6
20260901010525 31 150 0.0 0.0 0.00 0.00 0.00 20 1005.6
20260901010035 31 150 0.0 0.0 0.00 0.00 0.00 20 1005.6
20260901005524 31 199 0.0 0.0 0.00 0.00 0.00 20 1005.7
20260901005024 31 152 0.0 0.0 0.00 0.00 0.00 20 1005.7
20260901004525 31 159 0.0 0.0 0.00 0.00 0.00 20 1005.7
20260901004023 31 150 0.0 0.0 0.00 0.00 0.00 20 1005.7
20260901003524 31 147 0.0 0.0 0.00 0.00 0.00 20 1005.8
20260901003023 31 128 0.0 0.0 0.00 0.00 0.00 19 1005.8
20260901002523 31 167 0.0 0.0 0.00 0.00 0.00 20 1005.9
20260901002023 31 150 0.0 0.0 0.00 0.00 0.00 19 1005.8
20260901001527 31 147 0.0 0.0 0.00 0.00 0.00 20 1005.9
20260901001021 31 167 0.0 0.0 0.00 0.00 0.00 20 1006.0
20260901000520 31 155 0.0 0.0 0.00 0.00 0.00 19 1006.1
20260901000021 31 117 0.0 0.0 0.00 0.00 0.00 19 1006.2
20260831235521 31 79 0.0 0.0 0.00 0.00 0.00 20 1006.2
20260831235019 31 188 0.0 0.0 0.00 0.00 0.00 20 1006.2
20260831234521 31 141 0.0 0.0 0.00 0.00 0.00 20 1006.5
20260831234019 31 128 0.0 0.0 0.00 0.00 0.00 19 1006.4
20260831233518 31 159 0.0 0.0 0.00 0.00 0.00 19 1006.4
20260831233034 31 126 0.0 0.0 0.00 0.00 0.00 20 1006.4
20260831232517 31 134 0.0 0.0 0.00 0.00 0.00 20 1006.5
20260831232021 32 143 0.0 0.0 0.00 0.00 0.00 19 1006.5
20260831231520 31 156 0.0 0.0 0.00 0.00 0.00 20 1006.5
20260831231015 31 169 0.0 0.0 0.00 0.00 0.00 19 1006.7
20260831230515 31 68 0.0 0.0 0.00 0.00 0.00 19 1006.7
20260831230014 31 143 0.0 0.0 0.00 0.00 0.00 20 1006.8
20260831225514 31 138 0.0 0.0 0.00 0.00 0.00 20 1006.9
20260831225011 31 161 0.0 0.0 0.00 0.00 0.00 20 1007.0
20260831224510 31 155 0.0 0.0 0.00 0.00 0.00 20 1007.2
20260831224010 31 157 0.0 0.0 0.00 0.00 0.00 20 1007.2
20260831223508 31 150 0.0 0.0 0.00 0.00 0.00 21 1007.3
20260831223008 31 133 0.0 0.0 0.00 0.00 0.00 21 1007.5
20260831222506 31 155 0.0 0.0 0.00 0.00 0.00 21 1007.6
20260831222006 30 158 0.0 0.0 0.00 0.00 0.00 21 1007.7
20260831221504 30 162 0.0 0.0 0.00 0.00 0.00 22 1007.7
20260831221004 30 142 0.0 0.0 0.00 0.00 0.00 22 1007.8
20260831220503 30 119 0.0 0.0 0.00 0.00 0.00 22 1007.8
20260831220004 30 151 0.0 0.0 0.00 0.00 0.00 23 1007.9
20260831215501 30 137 0.0 0.0 0.00 0.00 0.00 23 1008.0
20260831215100 30 172 0.0 0.0 0.00 0.00 0.00 23 1008.1
20260831214609 30 155 0.0 0.0 0.00 0.00 0.00 23 1008.2
20260831214101 29 144 0.0 0.0 0.00 0.00 0.00 24 1008.2
20260831213556 29 165 0.0 0.0 0.00 0.00 0.00 24 1008.3
20260831213055 28 130 0.0 0.0 0.00 0.00 0.00 24 1008.3
20260831212554 28 69 0.0 0.0 0.00 0.00 0.00 24 1008.4
20260831212054 28 121 0.0 0.0 0.00 0.00 0.00 25 1008.5
20260831211552 28 123 0.0 0.0 0.00 0.00 0.00 25 1008.5
20260831211050 28 86 0.0 0.0 0.00 0.00 0.00 25 1008.6
20260831210553 28 127 0.0 0.0 0.00 0.00 0.00 25 1008.5
20260831210049 28 181 0.0 0.0 0.00 0.00 0.00 25 1008.6
20260831205552 28 116 0.0 0.0 0.00 0.00 0.00 26 1008.8
20260831205047 28 126 0.0 0.0 0.00 0.00 0.00 26 1008.8
20260831204546 27 149 0.0 0.0 0.00 0.00 0.00 28 1008.9
20260831204045 27 92 0.0 0.0 0.00 0.00 0.00 27 1008.9
20260831203545 27 107 0.0 0.0 0.00 0.00 0.00 27 1009.0
20260831203042 27 112 0.0 0.0 0.00 0.00 0.00 28 1009.1
20260831202542 27 77 0.0 0.0 0.00 0.00 0.00 29 1009.4
20260831202041 27 102 0.0 0.0 0.00 0.00 0.00 30 1009.6
20260831201539 27 127 0.0 0.0 0.00 0.00 0.00 30 1009.7
20260831201039 27 148 0.0 0.0 0.00 0.00 0.00 30 1009.9
20260831200538 26 148 0.0 0.0 0.00 0.00 0.00 31 1010.1
20260831200039 26 94 0.0 0.0 0.00 0.00 0.00 31 1010.0
20260831195534 26 137 0.0 0.0 0.00 0.00 0.00 32 1010.1
20260831195033 26 78 0.0 0.0 0.00 0.00 0.00 32 1010.2
20260831194533 26 100 0.0 0.0 0.00 0.00 0.00 32 1010.3
20260831194030 25 144 0.0 0.0 0.00 0.00 0.00 33 1010.3
20260831193531 25 176 0.0 0.0 0.00 0.00 0.00 34 1010.4
20260831193034 25 104 0.0 0.0 0.00 0.00 0.00 34 1010.5
20260831192527 25 156 0.0 0.0 0.00 0.00 0.00 34 1010.6
20260831192025 24 128 0.0 0.0 0.00 0.00 0.00 35 1010.7
20260831191524 24 132 0.0 0.0 0.00 0.00 0.00 35 1010.7
20260831191025 24 159 0.0 0.0 0.00 0.00 0.00 36 1010.8
20260831190522 23 89 0.0 0.0 0.00 0.00 0.00 35 1011.0
20260831190024 23 71 0.0 0.0 0.00 0.00 0.00 35 1011.0
20260831185519 23 163 0.0 0.0 0.00 0.00 0.00 37 1011.0
20260831185018 23 153 0.0 0.0 0.00 0.00 0.00 37 1011.2
20260831184517 23 57 0.0 0.0 0.00 0.00 0.00 37 1011.3
20260831184016 23 127 0.0 0.0 0.00 0.00 0.00 38 1011.3
20260831183514 22 146 0.0 0.0 0.00 0.00 0.00 38 1011.5
20260831183013 22 71 0.0 0.0 0.00 0.00 0.00 39 1011.5
20260831182514 22 200 0.0 0.0 0.00 0.00 0.00 39 1011.7
20260831182012 22 135 0.0 0.0 0.00 0.00 0.00 40 1011.8
20260831181511 22 136 0.0 0.0 0.00 0.00 0.00 40 1011.9
20260831181010 22 82 0.0 0.0 0.00 0.00 0.00 40 1012.0
20260831180508 22 126 0.0 0.0 0.00 0.00 0.00 42 1012.0
20260831180008 21 65 0.0 0.0 0.00 0.00 0.00 43 1012.1
20260831175506 21 57 0.0 0.0 0.00 0.00 0.00 44 1012.1
20260831175004 21 113 0.0 0.0 0.00 0.00 0.00 44 1012.2
20260831174506 20 104 0.0 0.0 0.00 0.00 0.00 47 1012.1
20260831174001 20 153 0.0 0.0 0.00 0.00 0.00 48 1012.2
20260831173559 19 95 0.0 0.0 0.00 0.00 0.00 50 1012.2
20260831173059 18 34 0.0 0.0 0.00 0.00 0.00 58 1012.3
20260831172557 18 38 0.0 0.0 0.00 0.00 0.00 61 1012.3
20260831172056 18 40 0.0 0.0 0.00 0.00 0.00 62 1012.3
20260831171555 17 40 0.0 0.0 0.00 0.00 0.00 63 1012.5
20260831171053 17 12 0.0 0.0 0.00 0.00 0.00 64 1012.5
20260831170552 17 55 0.0 0.0 0.00 0.00 0.00 65 1012.4
20260831170051 16 51 0.0 0.0 0.00 0.00 0.00 66 1012.5
20260831165549 16 49 0.0 0.0 0.00 0.00 0.00 67 1012.4
20260831165047 16 51 0.0 0.0 0.00 0.00 0.00 67 1012.6
20260831164549 15 51 0.0 0.0 0.00 0.00 0.00 68 1012.7
20260831164045 15 46 0.0 0.0 0.00 0.00 0.00 69 1012.7
20260831163544 15 28 0.0 0.0 0.00 0.00 0.00 69 1012.7
20260831163045 15 40 0.0 0.0 0.00 0.00 0.00 71 1012.8
20260831162544 14 39 0.0 0.0 0.00 0.00 0.00 71 1012.8
20260831162045 14 23 0.0 0.0 0.00 0.00 0.00 71 1012.8
20260831161550 13 38 0.0 0.0 0.00 0.00 0.00 71 1013.0
20260831161043 13 22 0.0 0.0 0.00 0.00 0.00 72 1013.0
20260831160542 13 26 0.0 0.0 0.00 0.00 0.00 72 1013.0
20260831160042 13 306 0.0 0.0 0.00 0.00 0.00 72 1013.0
20260831155542 13 306 0.0 0.0 0.00 0.00 0.00 72 1013.0
20260831155042 12 306 0.0 0.0 0.00 0.00 0.00 72 1013.1
20260831154542 12 306 0.0 0.0 0.00 0.00 0.00 68 1013.1
20260831154043 12 306 0.0 0.0 0.00 0.00 0.00 67 1013.1
20260831153544 12 248 0.0 0.0 0.00 0.00 0.00 61 1013.1
20260831153041 12 248 0.0 0.0 0.00 0.00 0.00 53 1013.1
20260831152541 11 248 0.0 0.0 0.00 0.00 0.00 43 1013.1
20260831152041 11 248 0.0 0.0 0.00 0.00 0.00 40 1013.2
20260831151540 11 248 0.0 0.0 0.00 0.00 0.00 39 1013.2
20260831151040 11 248 0.0 0.0 0.00 0.00 0.00 38 1013.0
20260831150542 11 248 0.0 0.0 0.00 0.00 0.00 39 1013.1
20260831150040 11 248 0.0 0.0 0.00 0.00 0.00 39 1013.0
20260831145539 10 248 0.0 0.0 0.00 0.00 0.00 36 1012.9
20260831145038 10 248 0.0 0.0 0.00 0.00 0.00 38 1013.0
20260831144537 10 248 0.0 0.0 0.00 0.00 0.00 42 1012.9
20260831144036 10 248 0.0 0.0 0.00 0.00 0.00 49 1012.8
20260831143536 10 248 0.0 0.0 0.00 0.00 0.00 53 1012.8
20260831143035 10 248 0.0 0.0 0.00 0.00 0.00 56 1012.8
20260831142535 10 248 0.0 0.0 0.00 0.00 0.00 56 1012.8
20260831142034 10 248 0.0 0.0 0.00 0.00 0.00 56 1012.8
20260831141536 10 248 0.0 0.0 0.00 0.00 0.00 57 1012.8
20260831141038 10 248 0.0 0.0 0.00 0.00 0.00 57 1012.7
20260831140535 10 248 0.0 0.0 0.00 0.00 0.00 58 1012.7
20260831140044 10 248 0.0 0.0 0.00 0.00 0.00 58 1012.8
20260831135534 10 248 0.0 0.0 0.00 0.00 0.00 58 1012.8
20260831135032 10 248 0.0 0.0 0.00 0.00 0.00 58 1012.8
20260831134538 10 248 0.0 0.0 0.00 0.00 0.00 58 1012.8
20260831134032 10 248 0.0 0.0 0.00 0.00 0.00 59 1012.8
20260831133531 10 248 0.0 0.0 0.00 0.00 0.00 60 1012.7
20260831133033 10 248 0.0 0.0 0.00 0.00 0.00 60 1012.8
20260831132531 10 248 0.0 0.0 0.00 0.00 0.00 60 1012.7
20260831132032 10 248 0.0 0.0 0.00 0.00 0.00 61 1012.7
20260831131530 10 248 0.0 0.0 0.00 0.00 0.00 63 1012.7
20260831131032 10 248 0.0 0.0 0.00 0.00 0.00 63 1012.6
20260831130529 10 248 0.0 0.0 0.00 0.00 0.00 62 1012.6
20260831130028 10 248 0.0 0.0 0.00 0.00 0.00 60 1012.7
20260831125533 10 248 0.0 0.0 0.00 0.00 0.00 63 1012.7
20260831125028 10 248 0.0 0.0 0.00 0.00 0.00 63 1012.6
20260831124527 10 248 0.0 0.0 0.00 0.00 0.00 63 1012.6
20260831124027 10 248 0.0 0.0 0.00 0.00 0.00 66 1012.7
20260831123529 10 248 0.0 0.0 0.00 0.00 0.00 66 1012.7
20260831123030 10 248 0.0 0.0 0.00 0.00 0.00 67 1012.6
20260831122525 10 248 0.0 0.0 0.00 0.00 0.00 68 1012.6
20260831122024 10 248 0.0 0.0 0.00 0.00 0.00 67 1012.7
20260831121532 10 248 0.0 0.0 0.00 0.00 0.00 68 1012.6
20260831121024 11 248 0.0 0.0 0.00 0.00 0.00 68 1012.5
20260831120524 11 248 0.0 0.0 0.00 0.00 0.00 68 1012.6
20260831120023 11 248 0.0 0.0 0.00 0.00 0.00 69 1012.6
20260831115522 11 248 0.0 0.0 0.00 0.00 0.00 69 1012.6
20260831115022 11 248 0.0 0.0 0.00 0.00 0.00 70 1012.7
20260831114521 11 248 0.0 0.0 0.00 0.00 0.00 70 1012.7
20260831114021 11 248 0.0 0.0 0.00 0.00 0.00 70 1012.6
20260831113525 11 248 0.0 0.0 0.00 0.00 0.00 70 1012.6
20260831113020 11 248 0.0 0.0 0.00 0.00 0.00 70 1012.7
20260831112523 11 248 0.0 0.0 0.00 0.00 0.00 70 1012.6
20260831112020 11 248 0.0 0.0 0.00 0.00 0.00 70 1012.6
20260831111518 11 248 0.0 0.0 0.00 0.00 0.00 70 1012.6
20260831111018 11 248 0.0 0.0 0.00 0.00 0.00 70 1012.6
20260831110517 11 248 0.0 0.0 0.00 0.00 0.00 70 1012.7
20260831110017 11 248 0.0 0.0 0.00 0.00 0.00 70 1012.6
20260831105518 11 248 0.0 0.0 0.00 0.00 0.00 70 1012.7
20260831105015 11 248 0.0 0.0 0.00 0.00 0.00 70 1012.7
20260831104522 11 248 0.0 0.0 0.00 0.00 0.00 70 1012.7
20260831104014 12 248 0.0 0.0 0.00 0.00 0.00 71 1012.7
20260831103513 12 248 0.0 0.0 0.00 0.00 0.00 71 1012.6
20260831103013 12 248 0.0 0.0 0.00 0.00 0.00 71 1012.6
20260831102516 12 248 0.0 0.0 0.00 0.00 0.00 71 1012.7
20260831102014 12 248 0.0 0.0 0.00 0.00 0.00 71 1012.7
20260831101512 12 248 0.0 0.0 0.00 0.00 0.00 71 1012.8
20260831101011 12 248 0.0 0.0 0.00 0.00 0.00 72 1012.8
20260831100510 12 248 0.0 0.0 0.00 0.00 0.00 72 1012.8
20260831100012 12 248 0.0 0.0 0.00 0.00 0.00 72 1012.7
20260831095509 12 248 0.0 0.0 0.00 0.00 0.00 72 1012.9
20260831095008 12 248 0.0 0.0 0.00 0.00 0.00 72 1013.0
20260831094511 12 248 0.0 0.0 0.00 0.00 0.00 72 1013.0
20260831094010 12 248 0.0 0.0 0.00 0.00 0.00 72 1013.1
20260831093506 12 248 0.0 0.0 0.00 0.00 0.00 72 1013.1
20260831093004 12 248 0.0 0.0 0.00 0.00 0.00 72 1013.1
20260831092506 13 248 0.0 0.0 0.00 0.00 0.00 72 1013.1
20260831092004 13 248 0.0 0.0 0.00 0.00 0.00 71 1013.1
20260831091505 13 248 0.0 0.0 0.00 0.00 0.00 71 1013.2
20260831091003 13 248 0.0 0.0 0.00 0.00 0.00 71 1013.2
20260831090502 13 248 0.0 0.0 0.00 0.00 0.00 71 1013.2
20260831090001 13 248 0.0 0.0 0.00 0.00 0.00 71 1013.3
20260831085601 13 248 0.0 0.0 0.00 0.00 0.00 71 1013.2
20260831085100 13 248 0.0 0.0 0.00 0.00 0.00 71 1013.1
20260831084609 13 248 0.0 0.0 0.00 0.00 0.00 71 1013.3
20260831084058 13 248 0.0 0.0 0.00 0.00 0.00 70 1013.3
20260831083557 13 248 0.0 0.0 0.00 0.00 0.00 70 1013.3
20260831083057 14 248 0.0 0.0 0.00 0.00 0.00 70 1013.2
20260831082556 14 248 0.0 0.0 0.00 0.00 0.00 70 1013.2
20260831082056 14 248 0.0 0.0 0.00 0.00 0.00 70 1013.3
20260831081555 14 248 0.0 0.0 0.00 0.00 0.00 70 1013.3
20260831081055 14 248 0.0 0.0 0.00 0.00 0.00 70 1013.3
20260831080555 15 248 0.0 0.0 0.00 0.00 0.00 70 1013.5
20260831080104 15 248 0.0 0.0 0.00 0.00 0.00 70 1013.3
20260831075553 15 248 0.0 0.0 0.00 0.00 0.00 69 1013.4
20260831075052 15 248 0.0 0.0 0.00 0.00 0.00 70 1013.4
20260831074551 15 248 0.0 0.0 0.00 0.00 0.00 69 1013.3
20260831074051 15 248 0.0 0.0 0.00 0.00 0.00 69 1013.3
20260831073551 15 254 0.0 0.0 0.00 0.00 0.00 69 1013.4
20260831073053 15 254 0.0 0.0 0.00 0.00 0.00 68 1013.4
20260831072549 15 254 0.0 0.0 0.00 0.00 0.00 69 1013.4
20260831072049 15 254 0.0 0.0 0.00 0.00 0.00 68 1013.4
20260831071549 15 254 0.0 0.0 0.00 0.00 0.00 68 1013.5
20260831071048 15 254 0.0 0.0 0.00 0.00 0.00 68 1013.4
20260831070547 15 254 0.0 0.0 0.00 0.00 0.00 68 1013.3
20260831070048 15 254 0.0 0.0 0.00 0.00 0.00 68 1013.4
20260831065548 15 254 0.0 0.0 0.00 0.00 0.00 68 1013.4
20260831065146 15 254 0.0 0.0 0.00 0.00 0.00 67 1013.4
20260831064544 15 254 0.0 0.0 0.00 0.00 0.00 67 1013.5
20260831064044 15 254 0.0 0.0 0.00 0.00 0.00 67 1013.6
20260831063544 16 254 0.0 0.0 0.00 0.00 0.00 67 1013.3
20260831063043 16 254 0.0 0.0 0.00 0.00 0.00 66 1013.4
20260831062543 16 254 0.0 0.0 0.00 0.00 0.00 66 1013.6
20260831062043 16 254 0.0 0.0 0.00 0.00 0.00 65 1013.5
20260831061543 16 255 0.0 0.0 0.00 0.00 0.00 66 1013.6
20260831061043 16 255 0.0 0.0 0.00 0.00 0.00 66 1013.6
20260831060542 16 255 0.0 0.0 0.00 0.00 0.00 65 1013.7
20260831060042 16 255 0.0 0.0 0.00 0.00 0.00 65 1013.6
20260831055544 16 252 0.0 0.0 0.00 0.00 0.00 64 1013.7
20260831055041 16 252 0.0 0.0 0.00 0.00 0.00 63 1013.7
20260831054541 17 252 0.0 0.0 0.00 0.00 0.00 63 1013.6
20260831054041 17 252 0.0 0.0 0.00 0.00 0.00 62 1013.6
20260831053541 17 252 0.0 0.0 0.00 0.00 0.00 62 1013.7
20260831053042 17 252 0.0 0.0 0.00 0.00 0.00 61 1013.7
20260831052543 17 252 0.0 0.0 0.00 0.00 0.00 61 1013.8
20260831052040 17 252 0.0 0.0 0.00 0.00 0.00 61 1013.9
20260831051544 18 252 0.0 0.0 0.00 0.00 0.00 60 1013.8
20260831051040 18 252 0.0 0.0 0.00 0.00 0.00 60 1013.8
20260831050541 18 252 0.0 0.0 0.00 0.00 0.00 59 1013.8
20260831050041 18 252 0.0 0.0 0.00 0.00 0.00 59 1013.8
20260831045541 18 252 0.0 0.0 0.00 0.00 0.00 59 1013.8
20260831045040 18 266 0.0 0.0 0.00 0.00 0.00 58 1013.9
20260831044550 18 266 0.0 0.0 0.00 0.00 0.00 58 1014.0
20260831044039 18 268 0.0 0.0 0.00 0.00 0.00 58 1013.9
20260831043541 19 281 0.0 0.0 0.00 0.00 0.00 58 1013.7
20260831043039 19 295 0.0 0.0 0.00 0.00 0.00 57 1013.8
20260831042542 19 269 0.0 0.0 0.00 0.00 0.00 56 1014.0
20260831042039 19 269 0.0 0.0 0.00 0.00 0.00 55 1013.9
20260831041548 19 268 0.0 0.0 0.00 0.00 0.00 54 1013.9
20260831041043 19 267 0.0 0.0 0.00 0.00 0.00 54 1013.9
20260831040539 19 266 0.0 0.0 0.00 0.00 0.00 53 1013.8
20260831040039 20 238 0.0 0.0 0.00 0.00 0.00 53 1013.9
20260831035541 20 220 0.0 0.0 0.00 0.00 0.00 52 1013.9
20260831035037 20 194 0.0 0.0 0.00 0.00 0.00 52 1013.9
20260831034537 20 248 0.0 0.0 0.00 0.00 0.00 51 1013.8
20260831034037 20 209 0.0 0.0 0.00 0.00 0.00 51 1013.8
20260831033537 20 243 0.0 0.0 0.00 0.00 0.00 51 1013.8
20260831033037 20 243 0.0 0.0 0.00 0.00 0.00 50 1013.6
20260831032537 20 243 0.0 0.0 0.00 0.00 0.00 50 1013.6
20260831032036 20 243 0.0 0.0 0.00 0.00 0.00 49 1013.5
20260831031538 21 242 0.0 0.0 0.00 0.00 0.00 49 1013.6
20260831031036 21 242 0.0 0.0 0.00 0.00 0.00 49 1013.5
20260831030539 21 239 0.0 0.0 0.00 0.00 0.00 48 1013.5
20260831030037 21 255 0.0 0.0 0.00 0.00 0.00 48 1013.6
20260831025536 21 243 0.0 0.0 0.00 0.00 0.00 47 1013.5
20260831025036 21 283 0.0 0.0 0.00 0.00 0.00 47 1013.4
20260831024539 21 284 0.0 0.0 0.00 0.00 0.00 46 1013.5